Miscellaneous Local Product
Issued by NWS Hastings, NE

Home | Current Version | Previous Version | Graphics & Text | Print | Product List | Glossary On
Versions: 1 2 3 4 5 6 7 8 9 10 11 12 13 14 15 16 17 18 19 20 21 22 23 24 25 26 27 28 29 30 31 32 33 34 35 36 37 38 39 40 41 42 43 44 45 46 47 48 49 50
000
AXUS43 KGID 191802
MISGRI

GID CWA HOURLY WEATHER ROUNDUP
NATIONAL WEATHER SERVICE HASTINGS NE
100 PM CDT THU OCT 19 2017

NOTE: "FAIR" INDICATES FEW OR NO CLOUDS BELOW 12,000 FEET WITH NO
SIGNIFICANT WEATHER AND/OR OBSTRUCTIONS TO VISIBILITY.

...SOUTH CENTRAL NEBRASKA...

CITY           SKY/WX    TMP DP  RH WIND       PRES   REMARKS
GRAND ISLAND   FAIR      74  50  42 VRB6      30.03F
HASTINGS       FAIR      73  50  44 SE7       30.04F
KEARNEY        FAIR      75  47  36 S10       30.03F
ORD            SUNNY     70  45  40 S8        30.01F
YORK           FAIR      73  50  43 S5        30.04F
AURORA         FAIR      74  48  39 S6        30.03F
LEXINGTON      SUNNY     74  44  34 S9G16     30.02F
HOLDREGE       FAIR      74  47  38 S6        30.03F
HEBRON         FAIR      77  51  41 S6        30.04F

...NEBRASKA PANHANDLE...

CITY           SKY/WX    TMP DP  RH WIND       PRES   REMARKS
CHADRON        SUNNY     79  18  10 W6        29.89F
ALLIANCE       SUNNY     76  25  15 S12       29.97F
SCOTTSBLUFF    SUNNY     69  27  20 VRB3      29.98F
SIDNEY         SUNNY     75  31  19 S16       30.02F

...WESTERN AND NORTH CENTRAL NEBRASKA...

CITY           SKY/WX    TMP DP  RH WIND       PRES   REMARKS
VALENTINE      SUNNY     79  38  22 SW21G30   29.92F
AINSWORTH      SUNNY     71  43  35 S17       29.96F
ONEILL         SUNNY     70  44  39 S15       29.99F
BROKEN BOW     SUNNY     71  47  42 S14       30.01F
IMPERIAL       SUNNY     78  41  26 S14G24    30.00F
NORTH PLATTE   SUNNY     71  45  39 S10       30.01F
MCCOOK         SUNNY     73  45  36 SE9       30.02F

...EASTERN NEBRASKA...

CITY           SKY/WX    TMP DP  RH WIND       PRES   REMARKS
NORFOLK        FAIR      72  51  47 S14       30.01F
SO SIOUX CITY  FAIR      70  49  47 S15       30.05F
TEKAMAH        FAIR      73  49  42 S10G16    30.05F
COLUMBUS       FAIR      75  52  44 S8        30.03F
ALBION         FAIR      72  49  44 S14       30.03F
OMAHA EPPLEY   FAIR      72  52  49 S12       30.05F
OFFUTT AFB     FAIR      72  53  51 SE12      30.05F
MILLARD        FAIR      72  55  54 SE6       30.05F
LINCOLN        FAIR      74  54  49 S5        30.05F
NEBRASKA CITY  FAIR      71  55  58 S6        30.07F
BEATRICE       FAIR      72  55  55 S7        30.05F
FALLS CITY     FAIR      73  53  49 S7        30.06F

...NORTHERN KANSAS...

CITY           SKY/WX    TMP DP  RH WIND       PRES   REMARKS
GOODLAND       SUNNY     78  45  30 S16G28    30.03F HAZE
HILL CITY      FAIR      78  48  34 SE9       30.04F
NORTON         CLEAR     75  39  27 SE9       30.02F
PHILLIPSBURG   SUNNY     73  46  38 SE7       30.04F
HAYS           FAIR      76  51  41 SE9       30.04F
RUSSELL        FAIR      78  52  40 S10       30.03F
CONCORDIA      FAIR      74  53  48 S9        30.05F
SALINA         FAIR      76  54  46 S13       30.06F
TOPEKA         FAIR      75  53  46 S8        30.09F



USA.gov is the U.S. government's official web portal to all federal, state and local government web resources and services.